salvationarmyusa.org alexa rank chart, salvationarmyusa.org alexa rank daily changes

salvationarmyusa.org alexa rank chart, salvationarmyusa.org alexa rank daily changes

salvationarmyusa.org
Actual rank:
60 169

RANK HISTORY

Date Rank Diff
2017/09/20 60 169 -268
2017/09/19 60 437 -776
2017/09/18 61 213 -530
2017/09/17 61 743 -811
2017/09/16 62 554 -1 351
2017/09/15 63 905 -1 603
2017/09/14 65 508 -665
2017/09/13 66 173 -531
2017/09/12 66 704 -769
2017/09/11 67 473 -17
2017/09/10 67 490 -577
2017/09/09 68 067 -1 970
2017/09/08 70 037 -849
2017/09/07 70 886 -1 601
2017/09/06 72 487 -2 412
2017/09/05 74 899 -3 468
2017/09/04 78 367 -4 209
2017/09/03 82 576 -4 122
2017/09/02 86 698 -5 447
2017/09/01 92 145 -10 827
2017/08/31 102 972 -10 276
2017/08/30 113 248 -14 915
2017/08/29 128 163 -2 988
2017/08/28 131 151 +1 389
2017/08/27 129 762 +963
2017/08/26 128 799 +469
2017/08/25 128 330 -688
2017/08/24 129 018 -852
2017/08/23 129 870 -1 573
2017/08/22 131 443 +759
2017/08/21 130 684 +169
2017/08/20 130 515 +2 148
2017/08/19 128 367 +3 107
2017/08/18 125 260 +668
2017/08/17 124 592 +2 180
2017/08/16 122 412 +403
2017/08/15 122 009 +210
2017/08/14 121 799 +1 050
2017/08/13 120 749 +2 452
2017/08/12 118 297 -729
2017/08/11 119 026 -953
2017/08/10 119 979 -944
2017/08/09 120 923 +3 105
2017/08/08 117 818 -657
2017/08/07 118 475 -1
2017/08/06 118 476 -32
2017/08/05 118 508 +3 152
2017/08/04 115 356 -26
2017/08/03 115 382 -1 058
2017/08/02 116 440 -1 885
2017/08/01 118 325 +647
2017/07/31 117 678 -1 053
2017/07/30 118 731 +276
2017/07/29 118 455 -834
2017/07/28 119 289 +838
2017/07/27 118 451 -75
2017/07/26 118 526 -525
2017/07/25 119 051 -513
2017/07/24 119 564 -1 072
2017/07/23 120 636 +1 224
2017/07/22 119 412

WIDGET FOR YOUR SITE

DOMAINS WITH THE NEAREST RANK

Domain Rank
notre-shop.com 60 164
gelifesciences.com 60 165
seedhost.eu 60 166
babfile.com 60 167
grinnell.edu 60 168
salvationarmyusa.org 60 169
oushinet.com 60 170
flashtranny.com 60 171
bpm-power.com 60 172
dramaq.me 60 173
farfetch-contents.com 60 174

DOMAINS WITH THE NEAREST RANK BY TLD .org

Domain Rank
fairview.org 60 041
klanlar.org 60 090
palungjit.org 60 122
xn--c1avfbif.org 60 127
sabnzbd.org 60 129
salvationarmyusa.org 60 169
internetfreedom.org 60 179
scrum.org 60 300
mitpressjournals.org 60 343
sexfap.org 60 358
tadabbor.org 60 490